RH
4324 4212 4109 4046 4065 4140 4243 4334 4388 4404 4374 4377 4378 4429 4464 4541 4574 4594 4581 4548 4530 4485 4465 4476 4440 4418 4382 4399 4438 4498 4513 4490 4417 4334 4220 4113 4019 3980 3930 3936 3966 4013 4060 4052 4013 4018 4070 4124 4160 4174 4152 4091 4124 4173 4219 4283 4300 4256 4186 4085 3977 3854 3684 3407 3052 2752 2557 2506 2645
4268 4170 4088 4082 4134 4220 4303 4368 4378 4401 4429 4435 4521 4600 4688 4751 4744 4693 4603 4526 4459 4434 4459 4479 4507 4554 4609 4631 4665 4673 4674 4609 4440 4258 4059 3879 3751 3667 3648 3663 3694 3746 3804 3826 3791 3766 3803 3892 4063 4219 4305 4351 4387 4443 4502 4552 4607 4644 4585 4520 4329 4149 3938 3696 3393 3093 2851 2687 2727
4212 4113 4087 4102 4197 4244 4307 4324 4371 4452 4543 4623 4713 4823 4880 4895 4845 4759 4673 4560 4502 4488 4510 4586 4657 4734 4816 4862 4802 4746 4689 4545 4369 4142 3932 3732 3592 3520 3504 3489 3496 3508 3556 3637 3662 3652 3670 3720 3906 4142 4361 4553 4671 4744 4793 4815 4842 4870 4870 4824 4708 4504 4233 3941 3654 3398 3164 2939 2865
4134 4077 4093 4138 4193 4241 4312 4373 4480 4599 4713 4813 4873 4927 4976 4952 4911 4862 4799 4731 4665 4629 4609 4596 4617 4665 4706 4737 4692 4616 4477 4326 4154 3958 3781 3593 3504 3438 3409 3399 3405 3396 3392 3443 3521 3595 3655 3680 3816 4040 4301 4598 4826 4996 5096 5143 5113 5088 5049 4989 4940 4810 4555 4229 3938 3673 3438 3208 3035
4068 4054 4092 4155 4251 4346 4429 4554 4714 4822 4912 4957 5026 5069 5073 5048 5041 5031 4966 4915 4835 4701 4551 4407 4299 4207 4148 4154 4172 4131 4059 3926 3810 3672 3554 3445 3390 3358 3360 3357 3357 3351 3312 3325 3390 3484 3594 3696 3825 3973 4201 4490 4812 5068 5299 5427 5405 5362 5276 5210 5116 4977 4799 4557 4247 3965 3711 3452 3266
4077 4110 4201 4305 4428 4566 4691 4780 4910 5003 5071 5113 5199 5240 5237 5204 5191 5148 5063 4927 4695 4453 4191 3984 3793 3634 3502 3415 3407 3394 3388 3372 3336 3315 3278 3237 3241 3215 3230 3252 3269 3285 3285 3277 3321 3395 3495 3652 3778 3913 4078 4289 4570 4898 5215 5497 5583 5582 5546 5447 5343 5215 5035 4848 4596 4313 4059 3786 3549
4203 4319 4456 4593 4726 4832 4935 5005 5073 5153 5242 5309 5366 5376 5343 5285 5161 4997 4788 4530 4223 3913 3677 3463 3324 3187 3065 2950 2880 2809 2777 2746 2773 2811 2836 2884 2913 2945 2997 3052 3107 3156 3216 3249 3304 3351 3426 3534 3665 3782 3903 4032 4243 4508 4817 5193 5416 5581 5657 5632 5504 5377 5237 5114 4915 4690 4438 4165 3903
4505 4626 4774 4894 4973 5057 5124 5185 5271 5368 5425 5454 5431 5370 5269 5104 4859 4562 4230 3881 3607 3367 3158 3024 2937 2865 2826 2770 2698 2627 2544 2470 2435 2423 2424 2453 2530 2573 2639 2716 2820 2913 3046 3133 3243 3314 3386 3430 3511 3586 3665 3743 3835 3991 4204 4527 4867 5151 5368 5549 5518 5430 5321 5227 5136 5015 4827 4587 4319
4854 4942 5038 5083 5118 5172 5260 5372 5484 5535 5548 5472 5323 5144 4927 4675 4316 3950 3617 3320 3077 2910 2795 2737 2690 2682 2677 2636 2598 2558 2501 2450 2402 2366 2332 2299 2315 2343 2376 2437 2520 2632 2753 2896 3082 3238 3365 3425 3419 3424 3441 3450 3487 3540 3621 3798 4071 4355 4659 4949 5109 5190 5194 5156 5157 5145 5096 4970 4734
5123 5148 5196 5214 5269 5333 5448 5563 5598 5535 5428 5245 5020 4730 4423 4063 3711 3370 3113 2907 2771 2677 2627 2603 2579 2564 2532 2504 2441 2399 2362 2320 2299 2271 2255 2272 2278 2304 2318 2355 2413 2502 2587 2702 2867 3056 3226 3343 3344 3318 3293 3271 3243 3233 3225 3259 3377 3556 3791 4059 4318 4530 4694 4794 4865 4974 5065 5130 5017
5244 5262 5302 5379 5455 5534 5613 5648 5523 5337 5115 4846 4525 4193 3846 3489 3198 2964 2811 2725 2640 2589 2524 2495 2436 2377 2318 2243 2176 2117 2080 2024 1991 2014 2031 2051 2096 2166 2245 2321 2416 2502 2588 2677 2787 2918 3051 3157 3165 3160 3140 3086 3044 3013 2969 2941 2946 3007 3106 3249 3451 3679 3902 4107 4263 4425 4621 4872 5024
5329 5377 5426 5537 5610 5645 5606 5501 5241 4960 4652 4351 4012 3666 3339 3043 2857 2741 2662 2599 2526 2451 2370 2302 2205 2108 1999 1924 1866 1805 1767 1723 1738 1737 1788 1825 1887 1983 2073 2190 2315 2426 2546 2631 2763 2895 3004 3069 3034 3001 2921 2844 2798 2766 2729 2698 2689 2699 2701 2731 2824 2965 3133 3332 3514 3686 3917 4193 4552
5471 5542 5625 5678 5667 5564 5410 5165 4838 4505 4173 3832 3523 3235 2977 2779 2670 2588 2515 2445 2361 2252 2161 2063 1955 1842 1768 1668 1625 1596 1550 1535 1562 1605 1637 1695 1751 1819 1909 1995 2137 2259 2377 2532 2690 2846 2967 3024 2995 2921 2838 2717 2632 2575 2535 2522 2512 2525 2515 2520 2535 2576 2613 2696 2861 3046 3245 3462 3767
5635 5712 5728 5697 5538 5325 5057 4738 4395 4046 3703 3393 3126 2911 2713 2601 2531 2441 2388 2280 2155 2074 1972 1859 1782 1694 1618 1564 1530 1507 1492 1505 1518 1542 1574 1615 1649 1713 1767 1853 1934 2052 2199 2351 2522 2684 2832 2911 2913 2887 2833 2749 2628 2549 2506 2488 2484 2488 2477 2482 2474 2437 2419 2398 2485 2617 2760 2931 3136
5785 5761 5660 5486 5240 4952 4631 4249 3917 3602 3318 3051 2867 2705 2572 2485 2393 2329 2226 2129 2010 1928 1840 1770 1674 1634 1598 1555 1533 1518 1509 1519 1534 1543 1552 1545 1604 1640 1690 1760 1812 1906 2005 2152 2292 2446 2589 2721 2759 2824 2843 2834 2759 2689 2647 2643 2617 2613 2612 2574 2539 2493 2420 2368 2382 2416 2495 2585 2712
5766 5630 5421 5172 4848 4519 4168 3820 3524 3268 3032 2848 2712 2587 2482 2396 2293 2201 2107 1995 1915 1837 1766 1708 1666 1646 1601 1586 1569 1559 1546 1552 1574 1594 1605 1632 1682 1721 1763 1824 1865 1915 1987 2094 2187 2287 2369 2484 2583 2696 2773 2834 2822 2811 2800 2778 2791 2791 2782 2745 2683 2632 2541 2451 2429 2410 2380 2395 2463
5580 5356 5077 4779 4452 4101 3781 3475 3238 3060 2888 2752 2639 2531 2417 2304 2190 2091 1998 1903 1839 1759 1725 1695 1663 1654 1631 1607 1583 1612 1637 1697 1743 1798 1869 1912 1973 2039 2083 2144 2177 2218 2279 2337 2367 2395 2427 2466 2573 2661 2771 2840 2857 2879 2863 2860 2872 2877 2872 2827 2802 2732 2654 2575 2512 2457 2385 2371 2341
5306 5016 4699 4401 4063 3757 3479 3251 3095 2943 2835 2705 2591 2462 2343 2216 2101 1997 1910 1857 1795 1742 1673 1674 1684 1649 1631 1629 1657 1706 1811 1943 2035 2148 2246 2350 2460 2545 2605 2649 2679 2729 2765 2776 2787 2757 2751 2740 2793 2876 2955 3027 3033 2999 2995 2951 2943 2910 2883 2861 2828 2762 2692 2623 2543 2495 2454 2393 2318
4979 4681 4363 4059 3770 3510 3291 3133 3025 2912 2785 2646 2500 2368 2244 2115 2009 1918 1862 1821 1760 1707 1665 1628 1648 1646 1674 1699 1809 1908 2076 2257 2424 2544 2645 2777 2898 2990 3059 3097 3108 3130 3141 3146 3135 3102 3073 3084 3120 3170 3229 3279 3279 3245 3218 3146 3085 3016 2951 2890 2830 2775 2715 2621 2557 2504 2472 2423 2346
4698 4407 4103 3799 3562 3373 3215 3124 3005 2856 2715 2563 2390 2252 2127 2013 1933 1875 1800 1755 1724 1682 1648 1613 1644 1699 1791 1923 2066 2223 2393 2612 2801 2894 2954 3011 3104 3155 3229 3245 3258 3258 3257 3240 3240 3229 3219 3225 3273 3298 3340 3382 3405 3402 3370 3328 3256 3168 3093 2999 2914 2837 2749 2651 2585 2546 2496 2460 2414
4488 4183 3884 3622 3434 3315 3196 3093 2938 2792 2593 2428 2280 2152 2027 1964 1906 1826 1759 1708 1668 1645 1629 1680 1800 1941 2090 2263 2433 2584 2737 2879 3008 3081 3074 3076 3128 3196 3255 3324 3350 3363 3359 3361 3369 3357 3341 3336 3351 3354 3366 3390 3402 3416 3406 3377 3344 3295 3214 3148 3051 2943 2855 2768 2694 2634 2582 2550 2480
4302 3987 3721 3482 3363 3255 3153 3012 2844 2654 2466 2308 2161 2067 1979 1907 1831 1759 1719 1657 1634 1663 1770 1909 2130 2326 2543 2730 2847 2926 2966 3000 3040 3103 3140 3202 3309 3396 3508 3642 3737 3779 3790 3766 3735 3710 3660 3610 3562 3521 3492 3491 3462 3444 3423 3411 3388 3336 3287 3227 3138 3053 2993 2915 2845 2776 2709 2635 2587
4134 3835 3587 3421 3313 3202 3063 2906 2719 2527 2355 2200 2093 1996 1915 1826 1759 1691 1640 1622 1682 1839 2048 2313 2584 2799 2980 3111 3143 3138 3098 3061 3095 3191 3327 3536 3744 3927 4097 4255 4371 4432 4401 4330 4271 4184 4082 3966 3846 3742 3669 3598 3525 3479 3466 3474 3490 3459 3405 3332 3256 3190 3135 3095 3012 2958 2896 2801 2761
3991 3712 3506 3367 3242 3123 2977 2793 2609 2427 2259 2129 2018 1927 1810 1720 1674 1629 1639 1688 1903 2184 2502 2812 3029 3177 3268 3274 3245 3207 3234 3262 3379 3568 3765 4045 4363 4632 4821 4964 5024 5024 4934 4829 4710 4574 4420 4247 4080 3910 3763 3635 3503 3415 3363 3334 3377 3428 3438 3423 3401 3333 3304 3241 3181 3135 3098 3041 2982
3846 3626 3459 3336 3211 3059 2884 2686 2501 2336 2173 2049 1930 1810 1715 1637 1613 1648 1730 1923 2237 2594 2940 3205 3304 3338 3337 3283 3262 3318 3429 3628 3893 4137 4405 4665 4984 5213 5385 5499 5496 5434 5344 5194 5045 4891 4725 4534 4351 4196 4024 3852 3652 3457 3280 3137 3109 3152 3224 3286 3346 3330 3329 3290 3282 3247 3253 3224 3223
3801 3615 3464 3347 3178 3010 2805 2617 2421 2259 2096 1980 1830 1708 1618 1584 1629 1775 1990 2279 2625 2954 3217 3358 3363 3348 3313 3274 3365 3515 3727 4031 4371 4707 5016 5298 5484 5640 5754 5845 5866 5850 5815 5763 5637 5418 5181 4938 4762 4598 4463 4319 4078 3765 3470 3240 3135 3035 3005 3018 3045 3110 3185 3259 3240 3277 3320 3373 3351
3845 3677 3543 3356 3154 2943 2727 2515 2325 2174 2016 1862 1728 1616 1571 1613 1753 1993 2307 2642 2944 3165 3307 3340 3336 3315 3359 3411 3576 3791 4056 4387 4773 5146 5460 5698 5840 5956 6076 6199 6331 6456 6565 6618 6518 6222 5834 5443 5164 4959 4829 4734 4625 4443 4225 3934 3701 3481 3280 3120 3020 2997 3035 3091 3151 3202 3267 3337 3356
4037 3868 3628 3385 3120 2851 2627 2412 2251 2083 1931 1776 1648 1574 1578 1687 1929 2235 2593 2898 3100 3205 3255 3249 3309 3380 3505 3651 3857 4130 4455 4845 5274 5634 5897 6056 6195 6343 6535 6730 6937 7124 7301 7409 7374 7037 6530 5952 5519 5187 4979 4876 4905 4883 4805 4666 4406 4163 3902 3629 3390 3208 3077 3032 3035 3103 3157 3232 3254
4316 4047 3736 3373 3044 2759 2513 2307 2154 1989 1846 1690 1606 1571 1646 1824 2144 2466 2774 3004 3085 3152 3185 3250 3372 3530 3685 3917 4204 4552 4979 5462 5895 6187 6394 6522 6668 6858 7074 7298 7531 7716 7850 7930 7894 7588 7061 6433 5907 5449 5134 4963 4961 4962 4948 4965 4898 4778 4605 4349 3991 3638 3360 3146 3050 3024 3024 3047 3091
4577 4212 3794 3345 2949 2619 2374 2205 2046 1890 1760 1660 1597 1617 1737 1953 2264 2589 2825 2998 3064 3122 3210 3352 3547 3744 3957 4276 4665 5143 5628 6120 6439 6680 6856 6989 7151 7321 7537 7745 7907 8001 8046 8067 8071 7879 7550 7109 6706 6348 6022 5754 5573 5457 5348 5232 5112 5041 4941 4865 4617 4273 3878 3509 3252 3093 2993 2944 2967
4755 4284 3762 3238 2815 2502 2257 2083 1949 1812 1718 1648 1638 1718 1876 2115 2404 2646 2840 2968 3034 3155 3287 3479 3724 3985 4299 4692 5245 5748 6209 6602 6841 7023 7180 7287 7418 7588 7775 7942 8010 8014 8001 7999 8016 8000 7932 7815 7654 7460 7219 6928 6648 6417 6220 5995 5726 5484 5315 5189 5067 4859 4533 4138 3726 3393 3137 3010 2982
4788 4235 3652 3092 2677 2360 2135 1958 1844 1757 1715 1678 1711 1824 1999 2243 2482 2683 2839 2963 3051 3199 3391 3614 3976 4306 4698 5113 5691 6201 6605 6904 7068 7234 7343 7400 7443 7551 7734 7912 7898 7915 7891 7880 7873 7910 7957 7996 7967 7926 7888 7812 7635 7498 7377 7246 6988 6670 6318 5940 5589 5326 5073 4760 4339 3918 3526 3257 3135
4648 4063 3476 2927 2496 2215 2013 1859 1791 1743 1715 1738 1815 1944 2127 2327 2514 2662 2809 2930 3084 3309 3576 3887 4277 4686 5102 5557 6080 6502 6855 7077 7234 7334 7360 7332 7280 7344 7494 7745 7821 7871 7902 7906 7910 7902 7928 7948 7949 7927 7883 7827 7795 7811 7855 7932 7827 7707 7493 7152 6670 6204 5753 5370 4901 4441 4013 3654 3402
4387 3811 3237 2714 2343 2087 1896 1784 1747 1748 1791 1827 1909 2039 2197 2401 2571 2694 2818 2958 3193 3474 3793 4180 4640 5085 5530 5938 6390 6751 7022 7183 7310 7341 7299 7204 7188 7204 7289 7484 7734 7885 7972 8026 8007 7999 7992 7982 7960 7932 7888 7816 7734 7712 7767 7855 7899 7945 7966 7941 7730 7363 6895 6392 5845 5274 4709 4227 3826
4037 3495 2980 2518 2190 1976 1819 1767 1777 1816 1878 1938 2015 2115 2248 2441 2595 2748 2874 3062 3341 3669 4028 4452 4942 5388 5788 6197 6599 6931 7147 7254 7293 7310 7302 7276 7256 7229 7240 7318 7593 7842 8009 8073 8066 8058 8030 8037 8026 7998 7949 7855 7800 7778 7789 7827 7811 7813 7859 7904 7951 7949 7821 7555 7063 6499 5834 5205 4629
3664 3202 2753 2345 2051 1868 1795 1779 1832 1929 1982 2064 2107 2193 2299 2459 2610 2762 2973 3238 3555 3927 4312 4742 5208 5615 6002 6395 6776 7085 7316 7407 7423 7434 7465 7476 7430 7370 7323 7357 7569 7801 7990 8076 8091 8080 8080 8070 8048 8009 7954 7860 7822 7805 7789 7756 7701 7698 7744 7845 7896 7889 7917 7987 7881 7614 7200 6635 5972
3337 2921 2540 2200 1971 1841 1793 1846 1932 2016 2088 2142 2202 2277 2390 2513 2635 2822 3082 3446 3819 4205 4582 5005 5418 5807 6170 6538 6885 7206 7487 7652 7685 7682 7687 7672 7604 7555 7518 7548 7694 7871 8007 8087 8129 8124 8135 8097 8080 8030 7970 7866 7833 7778 7734 7663 7602 7591 7632 7741 7886 7899 7879 7888 7957 8013 7963 7762 7313
3034 2688 2370 2093 1930 1879 1852 1932 2036 2130 2218 2273 2295 2337 2427 2559 2735 2954 3254 3679 4121 4495 4867 5210 5585 5936 6269 6623 6932 7263 7582 7845 7938 7921 7853 7757 7726 7707 7698 7736 7846 7960 8062 8115 8165 8195 8206 8162 8124 8074 7992 7863 7778 7723 7701 7679 7668 7701 7762 7822 7989 8010 7988 7950 7950 7952 7985 7990 7935
2795 2493 2226 2039 1941 1909 1950 2037 2134 2230 2324 2370 2345 2368 2444 2603 2845 3148 3501 3958 4404 4773 5083 5399 5698 6012 6332 6628 6951 7255 7576 7923 8030 7993 7906 7802 7778 7801 7837 7880 7971 8015 8051 8100 8172 8224 8252 8239 8190 8118 8011 7824 7704 7701 7731 7770 7846 7918 7987 8052 8118 8107 8052 7981 7948 7940 7914 7913 7983
2582 2338 2145 2005 1971 1993 2041 2121 2229 2333 2395 2441 2409 2412 2496 2713 3025 3384 3783 4199 4624 4955 5245 5520 5788 6070 6356 6637 6918 7197 7495 7824 7985 8005 7929 7822 7837 7859 7914 8005 8062 8041 8044 8071 8177 8241 8277 8255 8239 8176 8040 7857 7726 7715 7791 7863 7967 8071 8148 8192 8157 8102 8036 7981 7932 7921 7926 7917 7973
2443 2236 2071 1996 2003 2055 2132 2235 2323 2390 2436 2430 2403 2443 2590 2855 3258 3649 4029 4429 4804 5103 5373 5615 5855 6118 6363 6601 6869 7120 7382 7655 7906 7970 7937 7866 7898 7928 7994 8087 8119 8104 8065 8135 8219 8261 8284 8262 8228 8161 8067 7963 7851 7857 7907 8016 8110 8176 8198 8148 7983 7851 7766 7766 7802 7896 7976 8015 8015